Current Version              Previous Version:    01  02  03  04  05  06  07  08  09  10  11  12  13  14  15  16  17  18  19  20  21  22  23  24  25  26  27  28  29  30  
   31  32  33  34  35  36  37  38  39  40  41  42  43  44  45  46  47  48  49  50  51  52  53  54  55  56  57  58  59  60  

[Printable]
792
ASUS44 KEWX 311610
RWRTX
SOUTH TEXAS REGIONAL WEATHER ROUNDUP
NATIONAL WEATHER SERVICE AUSTIN/SAN ANTONIO TX
1100 AM CDT THU JUL 31 2014

NOTE: "FAIR" INDICATED FEW OR NO CLOUDS BELOW 12,000 FEET WITH NO
SIGNIFICANT WEATHER AND/OR OBSTRUCTIONS TO VISIBILITY.

* - THESE STATIONS ARE NOT NWS OR FAA STATIONS...AND ARE NOT SUBJECT
    TO NWS AND FAA QUALITY CONTROL.

TXZ171-172-183>190-311700-
TEXAS HILL COUNTRY AND EDWARDS PLATEAU

CITY           SKY/WX    TMP DP  RH WIND       PRES   REMARKS
JUNCTION       CLOUDY    79  67  66 N10       30.07R
*LLANO         CLOUDY    81  68  65 N12       30.06R
BURNET         CLOUDY    82  69  64 W7        30.05R
*HORSESHOE BAY CLOUDY    83  69  62 SW3       30.02S
*KERRVILLE     CLOUDY    82  72  69 NW7       30.04S
*FREDERICKSBRG CLOUDY    82  69  63 W7        30.04F
*ROCKSPRINGS   MOSUNNY   82  70  65 CALM      30.10S
*BOERNE STAGE  CLOUDY    81  68  65 W3        30.04S
*CASTROVILLE   CLOUDY    85  70  60 CALM      30.01R
HONDO          PTSUNNY   82  73  74 CALM      30.02R
*UVALDE        CLOUDY    84  74  71 CALM      30.01R HX  91
DEL RIO        CLOUDY    84  71  65 N6        30.01R
LAUGHLIN AFB   CLOUDY    82  72  70 NE3       30.02R
CARRIZO SPRGS  SUNNY     86  72  62 SE3       29.95S HX  92
$$

TXZ173-191>194-202-209-217>225-228-311700-
CENTRAL AND SOUTH CENTRAL TEXAS

CITY           SKY/WX    TMP DP  RH WIND       PRES   REMARKS
GEORGETOWN     PTSUNNY   84  73  70 W9        30.00S HX  91
AUSTIN/BERGSTM PTSUNNY   86  73  65 W6        29.99S HX  93
AUSTIN/MABRY   PTSUNNY   84  73  69 CALM      30.01S HX  90
*AUSTIN/EXEC   PTSUNNY   82  73  74 SW5       30.01S
*LAGO VISTA    PTSUNNY   84  70  63 W7        30.03S
SAN MARCOS     PTSUNNY   86  72  62 SW8       30.02R HX  92
NEW BRAUNFELS  CLOUDY    86  71  60 W9        29.98R HX  91
RANDOLPH AFB   CLOUDY    86  71  61 VRB2      30.00R HX  91
PT SAN ANTONIO PTSUNNY   86  73  66 W3        29.98S HX  93
SAN ANTONIO    PTSUNNY   86  74  67 W6        30.00R HX  94
STINSON FIELD  MOSUNNY   86  72  62 CALM      29.97S HX  92
*PLEASANTON    MOSUNNY   89  70  53 S3        29.97S HX  94
*LA GRANGE     PTSUNNY   87  76  70 SW6       29.98R HX  96
*GIDDINGS      PTSUNNY   84  72  67 SW3       30.04R HX  90
*GONZALES      PTSUNNY   90  74  59 S7        29.98S HX  99
$$

TXZ163>164-176>182-195>201-210>213-226-227-235-311700-
SOUTHEAST TEXAS

CITY           SKY/WX    TMP DP  RH WIND       PRES   REMARKS
COLLEGE STN    PTSUNNY   83  74  74 SW8       30.00S
*BRYAN         CLOUDY    83  75  75 SW7       30.01R HX  90
*CALDWELL      PTSUNNY   82  75  78 SW5       30.03S
*CROCKETT      PTSUNNY   82  77  83 SE5       30.04S HX  91
*BRENHAM       PTSUNNY   85  72  66 SW9       30.01R HX  91
HUNTSVILLE     CLOUDY    83  74  74 S6        30.02S
CONROE         PTSUNNY   84  75  74 S5        30.02R HX  92
HOUSTON BUSH   PTSUNNY   85  73  67 SW5       30.00R HX  91
HOUSTON HOBBY  PTSUNNY   86  72  62 SW6       29.99R HX  92
*HOUSTON SW AP PTSUNNY   86  73  66 S6        30.00S HX  93
PEARLAND       PTSUNNY   87  73  62 SW8       30.01R HX  94
HOUSTON HOOKS  CLOUDY    84  76  76 S8        30.00R HX  93
ELLINGTON FLD  PTSUNNY   91  75  59 S6        30.01R HX 102
SUGAR LAND     PTSUNNY   87  75  67 S8        30.00R HX  96
*HOUSTON EXEC  PTSUNNY   86  75  70 SW7       30.01R HX  95
*CLEVELAND MUN PTSUNNY   83  77  81 CALM      30.02S HX  92
*WHARTON       SUNNY     88  75  65 S8        29.99S HX  97
$$

TXZ214>216-236>238-311700-
THE UPPER TEXAS COAST

CITY           SKY/WX    TMP DP  RH WIND       PRES   REMARKS
*ORANGE        PTSUNNY   86  73  64 E9        30.02S HX  93
PORT ARTHUR    PTSUNNY   85  74  69 SE9       30.00S HX  92
GALVESTON      MOSUNNY   89  74  60 S10G18    30.00S HX  98
ANGLETON       PTSUNNY   88  76  67 S10       29.99S HX  99
*BAY CITY      MOSUNNY   91  76  62 SW9       29.99R HX 102
PALACIOS       MOSUNNY   88  76  67 S12       29.99R HX  99
$$

TXZ229>234-239>247-311700-
TEXAS COASTAL BEND AND RIO GRANDE PLAINS

CITY           SKY/WX    TMP DP  RH WIND       PRES   REMARKS
VICTORIA       MOSUNNY   92  74  55 S14G21    29.98R HX 101
*BEEVILLE      SUNNY     91  70  50 S16       29.96S HX  97
ROCKPORT       MOSUNNY   87  77  72 S12       29.96R HX  99
*PORT ARANSAS  SUNNY     84  78  81 S13       29.96S HX  95
*PORT LAVACA   MOSUNNY   89  75  63 S12G20    29.98R HX  98
*INGLESIDE     SUNNY     90  74  58 S17G23    29.96R HX 100
CORPUS CHRISTI PTSUNNY   92  73  53 S17G23    29.94S HX 100
CORPUS NAS     MOSUNNY   86  75  69 S20G25    29.95R HX  95
*ROBSTOWN      NOT AVBL
ALICE          SUNNY     92  73  53 S13       29.93S HX 100
KINGSVILLE NAS MOSUNNY   93  74  53 S18       29.93S HX 103
COTULLA        SUNNY     87  71  58 S7        29.96S HX  93
*FAITH RANCH   SUNNY     86  72  62 SE6       29.95R HX  92
LAREDO         SUNNY     90  72  55 VRB6      29.95S HX  97
$$

TXZ248>255-311700-
DEEP SOUTH TEXAS

CITY           SKY/WX    TMP DP  RH WIND       PRES   REMARKS
BROWNSVILLE    MOSUNNY   91  74  57 S18       29.94S HX 100
PORT ISABEL    PTSUNNY   92  72  51 S13G22    29.94R HX  99
*SOUTH PADRE   SUNNY     88  77  70 SE10      29.95S HX 100
HARLINGEN      MOSUNNY   93  74  53 S20G25    29.93S HX 103
*HEBBRONVILLE  SUNNY     89  68  48 S15G21    29.95S HX  93
MCALLEN        SUNNY     92  71  50 S18G25    29.93S HX  98
*WESLACO       SUNNY     92  69  47 S17       29.93S HX  97
FALFURRIAS     SUNNY     83  65  53 S14G22    29.93S
EDINBURG       SUNNY     93  69  44 S15G23    29.93F HX  98
*ZAPATA        NOT AVBL
$$

TXZ213>215-236>238-242>244-246-247-251-254-255-311700-
CMAN STATIONS

STATION/POSITION TIME  TEMP    WIND        PRES    WAVE
                       AIR SEA DIR/SP/G            HT/PER
                 (UTC) (F)     (DEG/KT/KT) (MB)    (FT/S)
SABINE PASS      1600   84 86  140/  6/  9 1016.0
SEA RIM ST PARK  1600   78     140/  2/  3 1016.4
NORTH JETTY/GLS  1600   85 88  200/  8/  9   N/A
EAGLE POINT      1600   86 86  190/  3/  5 1015.9
MORGANS POINT    1600   85 91  160/  3/  5 1015.8
MISSION/ARANSAS  1500   82     170/ 16     1016.0
PORT O`CONNOR    1600          180/ 11/ 13   N/A
PORT ARANSAS     1600   81 81  150/  8/  9 1015.2
MALAQUITE BEACH  1600   79 79  150/  8/  9 1013.9
BAFFIN BAY       1600   84 81  170/ 13/ 16 1014.1
PORT ISABEL      1600   89 81  160/ 16/ 20 1014.4
$$

GMZ080-GMZ150>470-311700-
OFFSHORE BUOY REPORTS

STATION/POSITION TIME  TEMP    WIND        PRES    WAVE
                       AIR SEA DIR/SP/G            HT/PER
                 (UTC) (F)     (DEG/KT/KT) (MB)    (FT/S)
20 E GALVESTON   1500   84     230/  8       N/A
90 E PT ARANSAS  1600   84 83  180/  8/ 10 1015.7    2/ 5
35 NE PT MANSFLD 1600   83 83  190/ 14/ 16 1014.0    3/ 5
200 E PT ISABEL  1600   84 86  200/  6/  8 1015.5    1/ 8
$$